Location: Caltech
(34.1382°N, 118.1253°W)
Time: 13:48:53
(UTC-07:00)

Uribyol 2 - Visible Passes

Search period start: 01 July 2016 00:00
Search period end: 11 July 2016 00:00
Orbit: 783 x 796 km, 98.7° (Epoch: 30 June)

Date Brightness Start Highest point End Pass type
(mag) Time Alt. Az. Time Alt. Az. Time Alt. Az.
01 Jul ? 03:18:59 10° NNE 03:24:00 46° E 03:26:16 29° SSE visible
01 Jul ? 04:59:35 10° NNW 05:03:02 18° WNW 05:06:29 10° WSW visible
02 Jul ? 02:50:07 10° NE 02:54:15 23° E 02:56:15 19° SE visible
02 Jul ? 04:29:01 10° N 04:33:41 34° WNW 04:36:58 17° SW visible
03 Jul ? 02:22:54 10° ENE 02:24:21 11° E 02:25:49 10° ESE visible
03 Jul ? 03:59:02 10° N 04:04:13 69° WNW 04:06:56 28° SSW visible
04 Jul ? 03:29:28 10° NNE 03:34:37 60° ESE 03:36:55 32° SSE visible
04 Jul ? 05:10:47 10° NNW 05:13:30 14° WNW 05:16:13 10° W visible
05 Jul ? 03:00:23 10° NE 03:04:54 30° E 03:06:53 23° SE visible
05 Jul ? 04:39:52 10° NNW 04:44:13 28° WNW 04:47:36 14° WSW visible
06 Jul ? 02:32:14 10° ENE 02:35:04 15° E 02:36:52 13° ESE visible
06 Jul ? 04:09:43 10° N 04:14:47 54° WNW 04:17:35 25° SW visible
07 Jul ? 03:40:01 10° NNE 03:45:14 77° ESE 03:47:32 34° S visible
08 Jul ? 03:10:44 10° NNE 03:15:33 37° E 03:17:31 27° SE visible
08 Jul ? 04:50:47 10° NNW 04:54:43 22° WNW 04:58:14 12° WSW visible
09 Jul ? 02:42:08 10° NE 02:45:45 19° E 02:47:29 16° ESE visible
09 Jul ? 04:20:27 10° N 04:25:20 42° WNW 04:28:12 22° SW visible
10 Jul ? 03:50:36 10° NNE 03:55:49 84° WNW 03:58:10 34° SSW visible
